Flag for Germany Weather past 2 weeks in Zwickau, Saxony, Germany

Now
40 °F

Passing clouds.


Feels Like: 35 °F
Forecast: 38 / 42 °F
Wind: 7 mph from West

Location: Gera-Leumnitz

Current Time: Dec 20, 2014 at 1:19:10 AM

Latest Report: Dec 20, 2014 at 1:00 AM


Visibility: 44 mi

Pressure: 30.06 "Hg

Humidity: 77%

Dew point: 33 °F

Location of ZwickauLocation

Historic Weather in Zwickau — Graph

°F

Zwickau temperature yesterday

Maximum temperature yesterday: 54 °F (at 12:00 AM)
Minimum temperature yesterday: 41 °F (at 11:00 PM)
Average temperature yesterday: 50 °F

Past Weeks' High & Low Weather Summary

 TemperatureHumidityPressure
High54 °F (Dec 19, 12:00 AM)100% (Dec 7, 1:00 AM)30.45 "Hg (Dec 7, 1:00 AM)
Low26 °F (Dec 9, 5:00 AM)63% (Dec 15, 2:00 PM)29.54 "Hg (Dec 12, 8:00 PM)
Average38 °F88%29.99 "Hg
* Reported Midnight between Dec 4 and Dec 5 — Midnight between Dec 19 and Dec 20, Zwickau, Weather by CustomWeather, © 2014

Note: Actual official high and low records may vary slightly from our data, if they occured in-between our weather recording intervals... More about our weather records

Advertising

Zwickau weather history for previous 24 hours

 ConditionsComfort  
Time TempWeatherWind HumidityBarometerVisibility
12:00 AM
Dec 20
40 °FPassing clouds.6 mph73%30.04 "Hg43 mi
11:00 PM
Dec 19
41 °FClear.7 mph71%30.02 "Hg43 mi
10:00 PM42 °FOvercast.6 mph75%29.98 "Hg40 mi
9:00 PM45 °FOvercast.10 mph78%29.94 "Hg43 mi
8:00 PM46 °FOvercast.5 mph82%29.90 "Hg43 mi
7:00 PM46 °FLight rain. Overcast.7 mph81%29.88 "Hg28 mi
6:00 PM47 °FLight rain. Low clouds.8 mph92%29.87 "Hg14 mi
5:00 PM48 °FLight rain. Overcast.8 mph89%29.82 "Hg14 mi
4:00 PM49 °FLight rain. Overcast.9 mph86%29.83 "Hg14 mi
3:00 PM49 °FLight rain. Overcast.10 mph84%29.82 "Hg25 mi
2:00 PM51 °FLight rain. Overcast.10 mph78%29.83 "Hg14 mi
1:00 PM51 °FLight rain. Overcast.12 mph78%29.84 "Hg43 mi
12:00 PM51 °FOvercast.10 mph76%29.85 "Hg43 mi
11:00 AM51 °FOvercast.9 mph76%29.87 "Hg43 mi
10:00 AM51 °FOvercast.10 mph78%29.87 "Hg43 mi
9:00 AM51 °FOvercast.9 mph79%29.88 "Hg43 mi
8:00 AM51 °FOvercast.9 mph77%29.89 "Hg43 mi
7:00 AM51 °FOvercast.13 mph76%29.89 "Hg43 mi
6:00 AM51 °FOvercast.12 mph77%29.89 "Hg43 mi
5:00 AM52 °FOvercast.12 mph78%29.88 "Hg43 mi
4:00 AM52 °FPassing clouds.9 mph79%29.89 "Hg40 mi
3:00 AM53 °FHaze.9 mph78%29.89 "Hg43 mi
2:00 AM53 °FPassing clouds.8 mph78%29.88 "Hg43 mi
1:00 AM54 °FOvercast.9 mph78%29.87 "Hg43 mi
Weather by CustomWeather, © 2014

See weather overviewHow to use our weather pages